Location: Tierz
(42.1336°N, 0.3549°W)
Time: 23:13:24
(UTC+00:00)

MOS 1 Rocket - Pass Details

Date: 29 October 2020
Orbit: 615 x 829 km, 97.4° (Epoch: 25 November)

Event Time Altitude Azimuth Distance (km) Brightness Sun altitude
Rises 18:03:33 0° 24° (NNE) 3,070 6.3 -12.6°
Reaches altitude 10° 18:06:03 10° 36° (NE) 2,184 5.5 -13.0°
Maximum altitude 18:10:10 28° 95° (E) 1,361 4.2 -13.8°
Drops below altitude 10° 18:14:28 10° 154° (SSE) 2,289 5.8 -14.6°
Sets 18:17:08 0° 165° (SSE) 3,245 6.7 -15.1°
